| time (UTC) | temp F | wind direction | speed MPH | gust MPH | rain 1hr in | rain 24hr in | rain mn in | humidity % | barometer mb |
| 20260508050051 | 61 | 130 | 0.0 | 3.0 | 0.00 | 0.00 | 0.00 | 60 | 1011.2 |
| 20260508045546 | 61 | 153 | 1.0 | 6.0 | 0.00 | 0.00 | 0.00 | 59 | 1011.4 |
| 20260508045044 | 61 | 144 | 1.0 | 3.0 | 0.00 | 0.00 | 0.00 | 59 | 1011.5 |
| 20260508044541 | 61 | 139 | 1.0 | 6.0 | 0.00 | 0.00 | 0.00 | 59 | 1011.4 |
| 20260508044037 | 61 | 147 | 2.0 | 6.0 | 0.00 | 0.00 | 0.00 | 58 | 1011.5 |
| 20260508043534 | 61 | 163 | 3.0 | 5.0 | 0.00 | 0.00 | 0.00 | 58 | 1011.5 |
| 20260508043032 | 61 | 142 | 2.0 | 3.0 | 0.00 | 0.00 | 0.00 | 58 | 1011.5 |
| 20260508042528 | 62 | 172 | 4.0 | 7.0 | 0.00 | 0.00 | 0.00 | 57 | 1011.4 |
| 20260508042026 | 62 | 160 | 3.0 | 3.0 | 0.00 | 0.00 | 0.00 | 57 | 1011.5 |
| 20260508041522 | 62 | 150 | 2.0 | 5.0 | 0.00 | 0.00 | 0.00 | 57 | 1011.5 |
| 20260508041018 | 62 | 140 | 3.0 | 5.0 | 0.00 | 0.00 | 0.00 | 57 | 1011.4 |
| 20260508040515 | 62 | 165 | 2.0 | 6.0 | 0.00 | 0.00 | 0.00 | 56 | 1011.9 |
| 20260508040013 | 62 | 144 | 1.0 | 3.0 | 0.00 | 0.00 | 0.00 | 56 | 1011.4 |
| 20260508035510 | 62 | 137 | 1.0 | 2.0 | 0.00 | 0.00 | 0.00 | 57 | 1011.6 |
| 20260508035007 | 62 | 146 | 1.0 | 6.0 | 0.00 | 0.00 | 0.00 | 56 | 1011.4 |
| 20260508034504 | 62 | 159 | 4.0 | 6.0 | 0.00 | 0.00 | 0.00 | 55 | 1011.5 |
| 20260508034001 | 62 | 143 | 1.0 | 3.0 | 0.00 | 0.00 | 0.00 | 56 | 1011.3 |
| 20260508033458 | 62 | 144 | 2.0 | 3.0 | 0.00 | 0.00 | 0.00 | 56 | 1011.3 |
| 20260508032956 | 62 | 147 | 2.0 | 5.0 | 0.00 | 0.00 | 0.00 | 56 | 1011.5 |
| 20260508032453 | 63 | 136 | 1.0 | 5.0 | 0.00 | 0.00 | 0.00 | 56 | 1011.4 |
| 20260508031950 | 63 | 134 | 1.0 | 5.0 | 0.00 | 0.00 | 0.00 | 56 | 1011.3 |
| 20260508031448 | 63 | 151 | 1.0 | 5.0 | 0.00 | 0.00 | 0.00 | 55 | 1011.4 |
| 20260508030942 | 62 | 153 | 3.0 | 5.0 | 0.00 | 0.00 | 0.00 | 55 | 1011.1 |
| 20260508030440 | 63 | 154 | 3.0 | 3.0 | 0.00 | 0.00 | 0.00 | 56 | 1011.3 |
| 20260508025937 | 63 | 143 | 2.0 | 5.0 | 0.00 | 0.00 | 0.00 | 55 | 1011.0 |
| 20260508025434 | 63 | 145 | 2.0 | 3.0 | 0.00 | 0.00 | 0.00 | 55 | 1011.1 |
| 20260508024931 | 63 | 165 | 2.0 | 6.0 | 0.00 | 0.00 | 0.00 | 54 | 1011.0 |
| 20260508024427 | 63 | 138 | 1.0 | 3.0 | 0.00 | 0.00 | 0.00 | 54 | 1011.1 |
| 20260508023924 | 63 | 149 | 2.0 | 5.0 | 0.00 | 0.00 | 0.00 | 54 | 1010.8 |
| 20260508023421 | 63 | 141 | 2.0 | 3.0 | 0.00 | 0.00 | 0.00 | 55 | 1010.8 |
| 20260508022918 | 63 | 154 | 2.0 | 3.0 | 0.00 | 0.00 | 0.00 | 55 | 1010.7 |
| 20260508022413 | 64 | 155 | 4.0 | 6.0 | 0.00 | 0.00 | 0.00 | 54 | 1010.8 |
| 20260508021910 | 63 | 156 | 3.0 | 3.0 | 0.00 | 0.00 | 0.00 | 54 | 1010.8 |
| 20260508021406 | 64 | 150 | 2.0 | 5.0 | 0.00 | 0.00 | 0.00 | 54 | 1010.5 |
| 20260508020902 | 64 | 153 | 2.0 | 3.0 | 0.00 | 0.00 | 0.00 | 53 | 1010.6 |
| 20260508020401 | 64 | 149 | 2.0 | 6.0 | 0.00 | 0.00 | 0.00 | 53 | 1010.7 |
| 20260508015857 | 64 | 152 | 3.0 | 9.0 | 0.00 | 0.00 | 0.00 | 53 | 1010.5 |
| 20260508015355 | 64 | 157 | 3.0 | 6.0 | 0.00 | 0.00 | 0.00 | 52 | 1010.5 |
| 20260508014851 | 64 | 153 | 2.0 | 5.0 | 0.00 | 0.00 | 0.00 | 52 | 1010.6 |
| 20260508014349 | 64 | 150 | 3.0 | 3.0 | 0.00 | 0.00 | 0.00 | 53 | 1010.5 |
| 20260508013844 | 64 | 157 | 3.0 | 6.0 | 0.00 | 0.00 | 0.00 | 52 | 1010.4 |
| 20260508013340 | 64 | 152 | 2.0 | 3.0 | 0.00 | 0.00 | 0.00 | 52 | 1010.5 |
| 20260508012838 | 64 | 143 | 2.0 | 2.0 | 0.00 | 0.00 | 0.00 | 52 | 1010.3 |
| 20260508012335 | 65 | 151 | 2.0 | 3.0 | 0.00 | 0.00 | 0.00 | 51 | 1010.4 |
| 20260508011833 | 65 | 149 | 2.0 | 5.0 | 0.00 | 0.00 | 0.00 | 51 | 1010.5 |
| 20260508011330 | 65 | 147 | 3.0 | 6.0 | 0.00 | 0.00 | 0.00 | 49 | 1010.2 |
| 20260508010827 | 66 | 150 | 2.0 | 3.0 | 0.00 | 0.00 | 0.00 | 49 | 1010.4 |
| 20260508010325 | 66 | 142 | 1.0 | 5.0 | 0.00 | 0.00 | 0.00 | 49 | 1010.4 |
| 20260508005822 | 66 | 149 | 2.0 | 3.0 | 0.00 | 0.00 | 0.00 | 49 | 1010.4 |
| 20260508005318 | 66 | 147 | 2.0 | 3.0 | 0.00 | 0.00 | 0.00 | 49 | 1010.5 |
| 20260508004815 | 66 | 127 | 0.0 | 5.0 | 0.00 | 0.00 | 0.00 | 49 | 1010.3 |
| 20260508004311 | 66 | 152 | 1.0 | 6.0 | 0.00 | 0.00 | 0.00 | 48 | 1010.5 |
| 20260508003807 | 66 | 148 | 3.0 | 3.0 | 0.00 | 0.00 | 0.00 | 48 | 1010.5 |
| 20260508003305 | 67 | 154 | 3.0 | 6.0 | 0.00 | 0.00 | 0.00 | 48 | 1010.6 |
| 20260508002801 | 67 | 148 | 2.0 | 3.0 | 0.00 | 0.00 | 0.00 | 47 | 1010.6 |
| 20260508002258 | 67 | 130 | 1.0 | 6.0 | 0.00 | 0.00 | 0.00 | 48 | 1010.5 |
| 20260508001754 | 67 | 159 | 3.0 | 3.0 | 0.00 | 0.00 | 0.00 | 49 | 1010.8 |
| 20260508001250 | 67 | 149 | 2.0 | 3.0 | 0.00 | 0.00 | 0.00 | 47 | 1010.5 |
| 20260508000746 | 67 | 139 | 2.0 | 3.0 | 0.00 | 0.00 | 0.00 | 48 | 1010.6 |
| 20260508000244 | 67 | 149 | 2.0 | 3.0 | 0.00 | 0.00 | 0.00 | 47 | 1010.9 |
| 20260507235740 | 68 | 128 | 2.0 | 5.0 | 0.00 | 0.00 | 0.00 | 46 | 1010.8 |
| 20260507235238 | 68 | 151 | 3.0 | 3.0 | 0.00 | 0.00 | 0.00 | 45 | 1010.9 |
| 20260507234734 | 68 | 118 | 5.0 | 6.0 | 0.00 | 0.00 | 0.00 | 44 | 1010.8 |
| 20260507234231 | 68 | 183 | 5.0 | 6.0 | 0.00 | 0.00 | 0.00 | 44 | 1011.0 |
| 20260507233727 | 68 | 186 | 4.0 | 6.0 | 0.00 | 0.00 | 0.00 | 43 | 1011.0 |
| 20260507233226 | 69 | 152 | 6.0 | 7.0 | 0.00 | 0.00 | 0.00 | 43 | 1011.1 |
| 20260507232723 | 69 | 132 | 3.0 | 3.0 | 0.00 | 0.00 | 0.00 | 45 | 1011.0 |
| 20260507232220 | 69 | 150 | 3.0 | 5.0 | 0.00 | 0.00 | 0.00 | 43 | 1010.9 |
| 20260507231716 | 69 | 211 | 3.0 | 7.0 | 0.00 | 0.00 | 0.00 | 43 | 1011.1 |
| 20260507231213 | 69 | 141 | 4.0 | 7.0 | 0.00 | 0.00 | 0.00 | 43 | 1010.7 |
| 20260507230710 | 69 | 150 | 3.0 | 8.0 | 0.00 | 0.00 | 0.00 | 44 | 1011.0 |
| 20260507230208 | 69 | 147 | 6.0 | 8.0 | 0.00 | 0.00 | 0.00 | 44 | 1011.1 |
| 20260507225706 | 69 | 157 | 6.0 | 8.0 | 0.00 | 0.00 | 0.00 | 45 | 1011.1 |
| 20260507225203 | 69 | 139 | 1.0 | 5.0 | 0.00 | 0.00 | 0.00 | 44 | 1011.0 |
| 20260507224659 | 69 | 135 | 2.0 | 5.0 | 0.00 | 0.00 | 0.00 | 44 | 1011.3 |
| 20260507224155 | 69 | 158 | 4.0 | 10.0 | 0.00 | 0.00 | 0.00 | 43 | 1011.0 |
| 20260507223652 | 69 | 150 | 1.0 | 7.0 | 0.00 | 0.00 | 0.00 | 44 | 1011.0 |
| 20260507223149 | 69 | 263 | 4.0 | 8.0 | 0.00 | 0.00 | 0.00 | 43 | 1011.2 |
| 20260507222646 | 69 | 150 | 1.0 | 7.0 | 0.00 | 0.00 | 0.00 | 44 | 1011.3 |
| 20260507222142 | 69 | 125 | 1.0 | 10.0 | 0.00 | 0.00 | 0.00 | 45 | 1011.3 |
| 20260507221639 | 69 | 147 | 2.0 | 5.0 | 0.00 | 0.00 | 0.00 | 46 | 1011.3 |
| 20260507221135 | 69 | 180 | 3.0 | 6.0 | 0.00 | 0.00 | 0.00 | 46 | 1011.3 |
| 20260507220632 | 69 | 211 | 4.0 | 6.0 | 0.00 | 0.00 | 0.00 | 46 | 1011.2 |
| 20260507220130 | 68 | 170 | 5.0 | 8.0 | 0.00 | 0.00 | 0.00 | 46 | 1011.4 |
| 20260507215626 | 68 | 269 | 3.0 | 7.0 | 0.00 | 0.00 | 0.00 | 45 | 1011.3 |
| 20260507215124 | 68 | 223 | 4.0 | 8.0 | 0.00 | 0.00 | 0.00 | 45 | 1011.4 |
| 20260507214620 | 67 | 179 | 2.0 | 6.0 | 0.00 | 0.00 | 0.00 | 46 | 1011.2 |
| 20260507214117 | 68 | 135 | 3.0 | 7.0 | 0.00 | 0.00 | 0.00 | 45 | 1011.7 |
| 20260507213613 | 68 | 149 | 3.0 | 7.0 | 0.00 | 0.00 | 0.00 | 45 | 1011.6 |
| 20260507213110 | 68 | 184 | 3.0 | 7.0 | 0.00 | 0.00 | 0.00 | 46 | 1011.9 |
| 20260507212606 | 68 | 168 | 4.0 | 6.0 | 0.00 | 0.00 | 0.00 | 46 | 1011.4 |
| 20260507212103 | 68 | 168 | 3.0 | 5.0 | 0.00 | 0.00 | 0.00 | 46 | 1012.1 |
| 20260507211600 | 68 | 137 | 3.0 | 7.0 | 0.00 | 0.00 | 0.00 | 46 | 1011.7 |
| 20260507211056 | 68 | 314 | 5.0 | 8.0 | 0.00 | 0.00 | 0.00 | 46 | 1012.1 |
| 20260507210553 | 67 | 183 | 5.0 | 7.0 | 0.00 | 0.00 | 0.00 | 45 | 1012.3 |
| 20260507210050 | 67 | 267 | 6.0 | 10.0 | 0.00 | 0.00 | 0.00 | 46 | 1012.3 |
| 20260507205547 | 67 | 164 | 4.0 | 6.0 | 0.00 | 0.00 | 0.00 | 48 | 1012.4 |
| 20260507205043 | 68 | 199 | 7.0 | 9.0 | 0.00 | 0.00 | 0.00 | 47 | 1012.6 |
| 20260507204539 | 67 | 161 | 3.0 | 7.0 | 0.00 | 0.00 | 0.00 | 48 | 1012.6 |
| 20260507204037 | 67 | 310 | 5.0 | 9.0 | 0.00 | 0.00 | 0.00 | 48 | 1012.6 |
| 20260507203535 | 66 | 198 | 5.0 | 13.0 | 0.00 | 0.00 | 0.00 | 47 | 1012.7 |
| 20260507203032 | 66 | 253 | 5.0 | 8.0 | 0.00 | 0.00 | 0.00 | 49 | 1012.9 |
| 20260507202528 | 66 | 170 | 8.0 | 11.0 | 0.00 | 0.00 | 0.00 | 49 | 1012.8 |
| 20260507202024 | 66 | 145 | 2.0 | 8.0 | 0.00 | 0.00 | 0.00 | 49 | 1013.0 |
| 20260507201520 | 66 | 135 | 7.0 | 14.0 | 0.00 | 0.00 | 0.00 | 49 | 1013.1 |
| 20260507201016 | 64 | 177 | 3.0 | 10.0 | 0.00 | 0.00 | 0.00 | 50 | 1013.2 |
| 20260507200512 | 64 | 176 | 3.0 | 8.0 | 0.00 | 0.00 | 0.00 | 49 | 1013.1 |
| 20260507200008 | 66 | 204 | 8.0 | 11.0 | 0.00 | 0.00 | 0.00 | 49 | 1013.3 |
| 20260507195505 | 66 | 185 | 5.0 | 10.0 | 0.00 | 0.00 | 0.00 | 49 | 1013.3 |
| 20260507195003 | 66 | 177 | 4.0 | 9.0 | 0.00 | 0.00 | 0.00 | 49 | 1013.2 |
| 20260507194459 | 66 | 153 | 5.0 | 9.0 | 0.00 | 0.00 | 0.00 | 48 | 1013.4 |
| 20260507193955 | 65 | 168 | 4.0 | 9.0 | 0.00 | 0.00 | 0.00 | 49 | 1013.5 |
| 20260507193452 | 65 | 218 | 4.0 | 9.0 | 0.00 | 0.00 | 0.00 | 50 | 1013.4 |
| 20260507192949 | 65 | 141 | 6.0 | 14.0 | 0.00 | 0.00 | 0.00 | 50 | 1013.5 |
| 20260507192445 | 65 | 194 | 3.0 | 10.0 | 0.00 | 0.00 | 0.00 | 50 | 1013.6 |
| 20260507191942 | 64 | 297 | 4.0 | 10.0 | 0.00 | 0.00 | 0.00 | 50 | 1013.9 |
| 20260507191438 | 64 | 224 | 4.0 | 9.0 | 0.00 | 0.00 | 0.00 | 50 | 1013.7 |
| 20260507190935 | 64 | 125 | 4.0 | 9.0 | 0.00 | 0.00 | 0.00 | 49 | 1013.9 |
| 20260507190432 | 64 | 158 | 3.0 | 9.0 | 0.00 | 0.00 | 0.00 | 50 | 1013.8 |
| 20260507185931 | 64 | 180 | 7.0 | 10.0 | 0.00 | 0.00 | 0.00 | 50 | 1014.1 |
| 20260507185428 | 63 | 140 | 5.0 | 7.0 | 0.00 | 0.00 | 0.00 | 52 | 1013.9 |
| 20260507184925 | 65 | 194 | 4.0 | 6.0 | 0.00 | 0.00 | 0.00 | 51 | 1014.2 |
| 20260507184423 | 64 | 122 | 7.0 | 11.0 | 0.00 | 0.00 | 0.00 | 51 | 1014.4 |
| 20260507183920 | 63 | 171 | 2.0 | 8.0 | 0.00 | 0.00 | 0.00 | 52 | 1014.2 |
| 20260507183417 | 63 | 176 | 4.0 | 8.0 | 0.00 | 0.00 | 0.00 | 53 | 1014.4 |
| 20260507182914 | 63 | 197 | 8.0 | 11.0 | 0.00 | 0.00 | 0.00 | 52 | 1014.4 |
| 20260507182410 | 63 | 165 | 5.0 | 15.0 | 0.00 | 0.00 | 0.00 | 53 | 1014.5 |
| 20260507181906 | 62 | 121 | 2.0 | 13.0 | 0.00 | 0.00 | 0.00 | 52 | 1014.6 |
| 20260507181402 | 62 | 352 | 4.0 | 16.0 | 0.00 | 0.00 | 0.00 | 52 | 1014.8 |
| 20260507180859 | 63 | 154 | 10.0 | 16.0 | 0.00 | 0.00 | 0.00 | 51 | 1014.7 |
| 20260507180356 | 64 | 236 | 5.0 | 9.0 | 0.00 | 0.00 | 0.00 | 53 | 1014.7 |
| 20260507175852 | 63 | 175 | 9.0 | 15.0 | 0.00 | 0.00 | 0.00 | 53 | 1014.9 |
| 20260507175349 | 63 | 162 | 4.0 | 8.0 | 0.00 | 0.00 | 0.00 | 53 | 1014.9 |
| 20260507174847 | 62 | 214 | 7.0 | 11.0 | 0.00 | 0.00 | 0.00 | 52 | 1015.2 |
| 20260507174344 | 62 | 182 | 5.0 | 10.0 | 0.00 | 0.00 | 0.00 | 53 | 1015.1 |
| 20260507173841 | 63 | 211 | 3.0 | 7.0 | 0.00 | 0.00 | 0.00 | 53 | 1015.1 |
| 20260507173338 | 62 | 135 | 1.0 | 8.0 | 0.00 | 0.00 | 0.00 | 52 | 1015.0 |
| 20260507172834 | 62 | 233 | 4.0 | 9.0 | 0.00 | 0.00 | 0.00 | 52 | 1015.2 |
| 20260507172331 | 62 | 216 | 3.0 | 9.0 | 0.00 | 0.00 | 0.00 | 53 | 1015.2 |
| 20260507171827 | 62 | 189 | 5.0 | 9.0 | 0.00 | 0.00 | 0.00 | 52 | 1015.3 |
| 20260507171324 | 62 | 160 | 3.0 | 10.0 | 0.00 | 0.00 | 0.00 | 54 | 1015.5 |
| 20260507170821 | 62 | 159 | 4.0 | 5.0 | 0.00 | 0.00 | 0.00 | 55 | 1015.7 |
| 20260507170317 | 62 | 161 | 3.0 | 10.0 | 0.00 | 0.00 | 0.00 | 55 | 1015.6 |
| 20260507165813 | 62 | 181 | 3.0 | 10.0 | 0.00 | 0.00 | 0.00 | 54 | 1015.7 |
| 20260507165310 | 61 | 171 | 6.0 | 13.0 | 0.00 | 0.00 | 0.00 | 54 | 1015.8 |
| 20260507164806 | 61 | 197 | 6.0 | 8.0 | 0.00 | 0.00 | 0.00 | 55 | 1016.0 |
| 20260507164303 | 62 | 186 | 5.0 | 8.0 | 0.00 | 0.00 | 0.00 | 54 | 1015.9 |
| 20260507163800 | 61 | 149 | 8.0 | 10.0 | 0.00 | 0.00 | 0.00 | 53 | 1015.9 |
| 20260507163258 | 61 | 120 | 3.0 | 9.0 | 0.00 | 0.00 | 0.00 | 54 | 1016.2 |
| 20260507162753 | 60 | 160 | 3.0 | 10.0 | 0.00 | 0.00 | 0.00 | 55 | 1016.0 |
| 20260507162249 | 61 | 123 | 3.0 | 10.0 | 0.00 | 0.00 | 0.00 | 55 | 1015.9 |
| 20260507161747 | 60 | 137 | 1.0 | 8.0 | 0.00 | 0.00 | 0.00 | 55 | 1016.3 |
| 20260507161243 | 61 | 163 | 5.0 | 11.0 | 0.00 | 0.00 | 0.00 | 56 | 1016.0 |
| 20260507160739 | 60 | 309 | 5.0 | 13.0 | 0.00 | 0.00 | 0.00 | 54 | 1016.0 |
| 20260507160236 | 60 | 151 | 7.0 | 13.0 | 0.00 | 0.00 | 0.00 | 54 | 1016.2 |
| 20260507155732 | 60 | 146 | 4.0 | 9.0 | 0.00 | 0.00 | 0.00 | 54 | 1016.4 |
| 20260507155228 | 60 | 220 | 6.0 | 9.0 | 0.00 | 0.00 | 0.00 | 55 | 1016.3 |
| 20260507154725 | 60 | 211 | 3.0 | 8.0 | 0.00 | 0.00 | 0.00 | 57 | 1016.2 |
| 20260507154222 | 60 | 183 | 3.0 | 8.0 | 0.00 | 0.00 | 0.00 | 56 | 1016.2 |
| 20260507153718 | 60 | 167 | 5.0 | 8.0 | 0.00 | 0.00 | 0.00 | 56 | 1016.3 |
| 20260507153215 | 60 | 256 | 3.0 | 8.0 | 0.00 | 0.00 | 0.00 | 57 | 1016.2 |
| 20260507152712 | 60 | 129 | 1.0 | 7.0 | 0.00 | 0.00 | 0.00 | 57 | 1016.5 |
| 20260507152207 | 59 | 195 | 3.0 | 9.0 | 0.00 | 0.00 | 0.00 | 58 | 1016.7 |
| 20260507151704 | 59 | 200 | 4.0 | 8.0 | 0.00 | 0.00 | 0.00 | 58 | 1016.6 |
| 20260507151200 | 59 | 138 | 5.0 | 6.0 | 0.00 | 0.00 | 0.00 | 59 | 1016.5 |
| 20260507150657 | 59 | 144 | 4.0 | 11.0 | 0.00 | 0.00 | 0.00 | 59 | 1016.7 |
| 20260507150154 | 59 | 176 | 3.0 | 6.0 | 0.00 | 0.00 | 0.00 | 61 | 1016.4 |
| 20260507145650 | 58 | 277 | 1.0 | 9.0 | 0.00 | 0.00 | 0.00 | 61 | 1016.7 |
| 20260507145147 | 58 | 159 | 4.0 | 8.0 | 0.00 | 0.00 | 0.00 | 62 | 1016.7 |
| 20260507144643 | 58 | 161 | 4.0 | 9.0 | 0.00 | 0.00 | 0.00 | 63 | 1016.9 |
| 20260507144142 | 57 | 229 | 3.0 | 8.0 | 0.00 | 0.00 | 0.00 | 64 | 1016.8 |
| 20260507143638 | 57 | 184 | 3.0 | 5.0 | 0.00 | 0.00 | 0.00 | 65 | 1016.7 |
| 20260507143135 | 57 | 145 | 2.0 | 6.0 | 0.00 | 0.00 | 0.00 | 66 | 1016.6 |
| 20260507142630 | 56 | 149 | 2.0 | 7.0 | 0.00 | 0.00 | 0.00 | 66 | 1016.8 |
| 20260507142128 | 56 | 150 | 3.0 | 7.0 | 0.00 | 0.00 | 0.00 | 66 | 1016.9 |
| 20260507141624 | 55 | 182 | 5.0 | 8.0 | 0.00 | 0.00 | 0.00 | 66 | 1016.8 |
| 20260507141121 | 55 | 274 | 2.0 | 7.0 | 0.00 | 0.00 | 0.00 | 68 | 1017.0 |
| 20260507140617 | 55 | 139 | 2.0 | 5.0 | 0.00 | 0.00 | 0.00 | 69 | 1016.8 |
| 20260507140115 | 54 | 121 | 1.0 | 5.0 | 0.00 | 0.00 | 0.00 | 69 | 1016.9 |
| 20260507135612 | 54 | 215 | 4.0 | 6.0 | 0.00 | 0.00 | 0.00 | 70 | 1016.9 |
| 20260507135109 | 54 | 286 | 0.0 | 6.0 | 0.00 | 0.00 | 0.00 | 72 | 1016.7 |
| 20260507134605 | 53 | 124 | 1.0 | 2.0 | 0.00 | 0.00 | 0.00 | 74 | 1016.9 |
| 20260507134102 | 53 | 142 | 2.0 | 3.0 | 0.00 | 0.00 | 0.00 | 73 | 1017.0 |
| 20260507133557 | 52 | 99 | 1.0 | 6.0 | 0.00 | 0.00 | 0.00 | 74 | 1016.9 |
| 20260507133055 | 52 | 87 | 1.0 | 2.0 | 0.00 | 0.00 | 0.00 | 75 | 1016.8 |
| 20260507132552 | 51 | 117 | 1.0 | 3.0 | 0.00 | 0.00 | 0.00 | 76 | 1017.1 |
| 20260507132048 | 50 | 27 | 0.0 | 0.0 | 0.00 | 0.00 | 0.00 | 79 | 1017.1 |
| 20260507131545 | 50 | 74 | 0.0 | 1.0 | 0.00 | 0.00 | 0.00 | 79 | 1017.1 |
| 20260507131043 | 50 | 74 | 0.0 | 0.0 | 0.00 | 0.00 | 0.00 | 79 | 1017.2 |
| 20260507130539 | 48 | 73 | 0.0 | 0.0 | 0.00 | 0.00 | 0.00 | 81 | 1017.4 |
| 20260507130038 | 48 | 73 | 0.0 | 0.0 | 0.00 | 0.00 | 0.00 | 81 | 1017.5 |
| 20260507125536 | 48 | 73 | 0.0 | 0.0 | 0.00 | 0.00 | 0.00 | 82 | 1017.4 |
| 20260507125033 | 47 | 73 | 0.0 | 0.0 | 0.00 | 0.00 | 0.00 | 84 | 1017.3 |
| 20260507124529 | 46 | 73 | 0.0 | 0.0 | 0.00 | 0.00 | 0.00 | 86 | 1017.2 |
| 20260507124027 | 44 | 73 | 0.0 | 0.0 | 0.00 | 0.00 | 0.00 | 88 | 1017.4 |
| 20260507123525 | 43 | 73 | 0.0 | 0.0 | 0.00 | 0.00 | 0.00 | 89 | 1017.3 |
| 20260507123021 | 43 | 73 | 0.0 | 0.0 | 0.00 | 0.00 | 0.00 | 89 | 1017.2 |
| 20260507122517 | 42 | 73 | 0.0 | 0.0 | 0.00 | 0.00 | 0.00 | 90 | 1017.3 |
| 20260507122013 | 42 | 73 | 0.0 | 0.0 | 0.00 | 0.00 | 0.00 | 90 | 1017.2 |
| 20260507121509 | 41 | 73 | 0.0 | 0.0 | 0.00 | 0.00 | 0.00 | 90 | 1017.3 |
| 20260507121004 | 41 | 73 | 0.0 | 0.0 | 0.00 | 0.00 | 0.00 | 89 | 1017.5 |
| 20260507120501 | 41 | 73 | 0.0 | 0.0 | 0.00 | 0.00 | 0.00 | 89 | 1017.2 |
| 20260507115958 | 41 | 73 | 0.0 | 0.0 | 0.00 | 0.00 | 0.00 | 88 | 1017.1 |
| 20260507115454 | 42 | 73 | 0.0 | 0.0 | 0.00 | 0.00 | 0.00 | 88 | 1017.3 |
| 20260507114950 | 42 | 73 | 0.0 | 0.0 | 0.00 | 0.00 | 0.00 | 87 | 1017.2 |
| 20260507114446 | 43 | 73 | 0.0 | 0.0 | 0.00 | 0.00 | 0.00 | 86 | 1017.2 |
| 20260507113944 | 44 | 73 | 0.0 | 0.0 | 0.00 | 0.00 | 0.00 | 85 | 1017.3 |
| 20260507113440 | 43 | 73 | 0.0 | 0.0 | 0.00 | 0.00 | 0.00 | 88 | 1017.2 |
| 20260507112938 | 41 | 73 | 0.0 | 0.0 | 0.00 | 0.00 | 0.00 | 91 | 1017.1 |
| 20260507112435 | 41 | 73 | 0.0 | 0.0 | 0.00 | 0.00 | 0.00 | 90 | 1017.1 |
| 20260507111932 | 40 | 73 | 0.0 | 0.0 | 0.00 | 0.00 | 0.00 | 90 | 1017.1 |
| 20260507111430 | 40 | 73 | 0.0 | 0.0 | 0.00 | 0.00 | 0.00 | 89 | 1017.1 |
| 20260507110926 | 41 | 73 | 0.0 | 0.0 | 0.00 | 0.00 | 0.00 | 89 | 1016.9 |
| 20260507110422 | 41 | 73 | 0.0 | 0.0 | 0.00 | 0.00 | 0.00 | 88 | 1017.0 |
| 20260507105919 | 42 | 73 | 0.0 | 0.0 | 0.00 | 0.00 | 0.00 | 86 | 1017.1 |
| 20260507105416 | 43 | 73 | 0.0 | 0.0 | 0.00 | 0.00 | 0.00 | 84 | 1017.1 |
| 20260507104912 | 45 | 73 | 0.0 | 0.0 | 0.00 | 0.00 | 0.00 | 84 | 1017.2 |
| 20260507104409 | 42 | 73 | 0.0 | 0.0 | 0.00 | 0.00 | 0.00 | 84 | 1017.1 |
| 20260507103905 | 44 | 73 | 0.0 | 0.0 | 0.00 | 0.00 | 0.00 | 82 | 1017.1 |
| 20260507103402 | 43 | 73 | 0.0 | 0.0 | 0.00 | 0.00 | 0.00 | 85 | 1017.0 |
| 20260507102858 | 45 | 73 | 0.0 | 0.0 | 0.00 | 0.00 | 0.00 | 79 | 1017.1 |
| 20260507102354 | 48 | 73 | 0.0 | 0.0 | 0.00 | 0.00 | 0.00 | 77 | 1017.0 |
| 20260507101851 | 46 | 72 | 0.0 | 0.0 | 0.00 | 0.00 | 0.00 | 78 | 1017.1 |
| 20260507101351 | 47 | 72 | 0.0 | 0.0 | 0.00 | 0.00 | 0.00 | 79 | 1017.2 |
| 20260507100848 | 47 | 72 | 0.0 | 0.0 | 0.00 | 0.00 | 0.00 | 82 | 1017.1 |
| 20260507100346 | 42 | 71 | 0.0 | 0.0 | 0.00 | 0.00 | 0.00 | 90 | 1017.1 |
| 20260507095844 | 43 | 71 | 0.0 | 0.0 | 0.00 | 0.00 | 0.00 | 86 | 1017.1 |
| 20260507095340 | 42 | 70 | 0.0 | 0.0 | 0.00 | 0.00 | 0.00 | 90 | 1017.0 |
| 20260507094838 | 43 | 70 | 0.0 | 0.0 | 0.00 | 0.00 | 0.00 | 87 | 1017.3 |
| 20260507094334 | 45 | 70 | 0.0 | 0.0 | 0.00 | 0.00 | 0.00 | 88 | 1017.2 |
| 20260507093831 | 44 | 69 | 0.0 | 0.0 | 0.00 | 0.00 | 0.00 | 92 | 1017.2 |
| 20260507093329 | 44 | 68 | 0.0 | 0.0 | 0.00 | 0.00 | 0.00 | 95 | 1017.3 |
| 20260507092827 | 41 | 68 | 0.0 | 0.0 | 0.00 | 0.00 | 0.00 | 95 | 1017.5 |
| 20260507092323 | 40 | 68 | 0.0 | 0.0 | 0.00 | 0.00 | 0.00 | 94 | 1017.4 |
| 20260507091820 | 40 | 68 | 0.0 | 0.0 | 0.00 | 0.00 | 0.00 | 94 | 1017.4 |
| 20260507091316 | 41 | 68 | 0.0 | 0.0 | 0.00 | 0.00 | 0.00 | 94 | 1017.3 |
| 20260507090811 | 41 | 68 | 0.0 | 0.0 | 0.00 | 0.00 | 0.00 | 94 | 1017.4 |
| 20260507090308 | 41 | 68 | 0.0 | 0.0 | 0.00 | 0.00 | 0.00 | 94 | 1017.2 |
| 20260507085805 | 41 | 68 | 0.0 | 0.0 | 0.00 | 0.00 | 0.00 | 94 | 1017.4 |
| 20260507085306 | 41 | 68 | 0.0 | 0.0 | 0.00 | 0.00 | 0.00 | 94 | 1017.4 |
| 20260507084800 | 41 | 68 | 0.0 | 0.0 | 0.00 | 0.00 | 0.00 | 94 | 1017.4 |
| 20260507084255 | 41 | 68 | 0.0 | 0.0 | 0.00 | 0.00 | 0.00 | 94 | 1017.3 |
| 20260507083753 | 41 | 68 | 0.0 | 0.0 | 0.00 | 0.00 | 0.00 | 93 | 1017.4 |
| 20260507083250 | 41 | 68 | 0.0 | 0.0 | 0.00 | 0.00 | 0.00 | 93 | 1017.4 |
| 20260507082746 | 41 | 68 | 0.0 | 0.0 | 0.00 | 0.00 | 0.00 | 93 | 1017.6 |
| 20260507082242 | 41 | 68 | 0.0 | 0.0 | 0.00 | 0.00 | 0.00 | 93 | 1017.5 |
| 20260507081739 | 41 | 68 | 0.0 | 0.0 | 0.00 | 0.00 | 0.00 | 93 | 1017.5 |
| 20260507081235 | 41 | 68 | 0.0 | 0.0 | 0.00 | 0.00 | 0.00 | 92 | 1017.5 |
| 20260507080731 | 42 | 68 | 0.0 | 0.0 | 0.00 | 0.00 | 0.00 | 92 | 1017.4 |
| 20260507080228 | 42 | 68 | 0.0 | 0.0 | 0.00 | 0.00 | 0.00 | 92 | 1017.5 |
| 20260507075723 | 42 | 68 | 0.0 | 0.0 | 0.00 | 0.00 | 0.00 | 92 | 1017.1 |
| 20260507075220 | 42 | 68 | 0.0 | 0.0 | 0.00 | 0.00 | 0.00 | 92 | 1017.1 |
| 20260507074716 | 42 | 68 | 0.0 | 0.0 | 0.00 | 0.00 | 0.00 | 92 | 1017.3 |
| 20260507074214 | 42 | 68 | 0.0 | 0.0 | 0.00 | 0.00 | 0.00 | 92 | 1017.2 |
| 20260507073711 | 42 | 68 | 0.0 | 0.0 | 0.00 | 0.00 | 0.00 | 91 | 1017.4 |
| 20260507073207 | 42 | 68 | 0.0 | 0.0 | 0.00 | 0.00 | 0.00 | 91 | 1017.6 |
| 20260507072705 | 43 | 68 | 0.0 | 0.0 | 0.00 | 0.00 | 0.00 | 91 | 1017.5 |
| 20260507072202 | 43 | 68 | 0.0 | 0.0 | 0.00 | 0.00 | 0.00 | 90 | 1017.8 |
| 20260507071700 | 43 | 68 | 0.0 | 0.0 | 0.00 | 0.00 | 0.00 | 90 | 1017.7 |
| 20260507071155 | 43 | 68 | 0.0 | 0.0 | 0.00 | 0.00 | 0.00 | 90 | 1017.8 |
| 20260507070653 | 43 | 68 | 0.0 | 0.0 | 0.00 | 0.00 | 0.00 | 89 | 1017.9 |
| 20260507070149 | 43 | 68 | 0.0 | 0.0 | 0.00 | 0.00 | 0.00 | 89 | 1017.7 |
| 20260507065646 | 43 | 68 | 0.0 | 0.0 | 0.00 | 0.00 | 0.00 | 89 | 1017.7 |
| 20260507065143 | 43 | 68 | 0.0 | 0.0 | 0.00 | 0.00 | 0.00 | 89 | 1018.0 |
| 20260507064640 | 43 | 68 | 0.0 | 0.0 | 0.00 | 0.00 | 0.00 | 89 | 1017.9 |
| 20260507064139 | 43 | 68 | 0.0 | 0.0 | 0.00 | 0.00 | 0.00 | 89 | 1018.0 |
| 20260507063636 | 43 | 68 | 0.0 | 0.0 | 0.00 | 0.00 | 0.00 | 89 | 1018.0 |
| 20260507063133 | 43 | 68 | 0.0 | 0.0 | 0.00 | 0.00 | 0.00 | 90 | 1018.1 |
| 20260507062629 | 43 | 68 | 0.0 | 0.0 | 0.00 | 0.00 | 0.00 | 90 | 1018.1 |
| 20260507062128 | 43 | 68 | 0.0 | 0.0 | 0.00 | 0.00 | 0.00 | 91 | 1018.1 |
| 20260507061625 | 43 | 68 | 0.0 | 0.0 | 0.00 | 0.00 | 0.00 | 91 | 1018.2 |
| 20260507061123 | 43 | 68 | 0.0 | 0.0 | 0.00 | 0.00 | 0.00 | 92 | 1018.1 |
| 20260507060621 | 43 | 68 | 0.0 | 0.0 | 0.00 | 0.00 | 0.00 | 92 | 1018.1 |
| 20260507060117 | 43 | 68 | 0.0 | 0.0 | 0.00 | 0.00 | 0.00 | 92 | 1018.1 |
| 20260507055612 | 43 | 68 | 0.0 | 0.0 | 0.00 | 0.00 | 0.00 | 92 | 1018.2 |
| 20260507055109 | 43 | 68 | 0.0 | 0.0 | 0.00 | 0.00 | 0.00 | 92 | 1018.3 |
| 20260507054604 | 43 | 68 | 0.0 | 0.0 | 0.00 | 0.00 | 0.00 | 93 | 1018.2 |
| 20260507054102 | 43 | 68 | 0.0 | 0.0 | 0.00 | 0.00 | 0.00 | 93 | 1018.1 |
| 20260507053600 | 43 | 68 | 0.0 | 0.0 | 0.00 | 0.00 | 0.00 | 93 | 1018.0 |
| 20260507053058 | 42 | 68 | 0.0 | 0.0 | 0.00 | 0.00 | 0.00 | 93 | 1018.1 |
| 20260507052556 | 42 | 68 | 0.0 | 0.0 | 0.00 | 0.00 | 0.00 | 93 | 1018.1 |
| 20260507052052 | 42 | 68 | 0.0 | 0.0 | 0.00 | 0.00 | 0.00 | 93 | 1018.0 |
| 20260507051549 | 42 | 68 | 0.0 | 0.0 | 0.00 | 0.00 | 0.00 | 92 | 1018.1 |
| 20260507051046 | 42 | 68 | 0.0 | 0.0 | 0.00 | 0.00 | 0.00 | 92 | 1018.2 |
| 20260507050543 | 42 | 68 | 0.0 | 0.0 | 0.00 | 0.00 | 0.00 | 92 | 1018.2 |